[[{"header":{"parameterUnit":"m.s-1","parameterCategory":1,"la1":30.2991,"la2":30.254,"lo1":-89.0895,"lo2":-89.0444,"dy":0.0017,"dx":0.0017,"nx":28,"ny":28,"refTime":"2025-02-10T03:00:00:Z","depth":0,"parameterNumber":2,"parameterNumberName":"U-component_of_WINDS"},"data":[0,0,0,0,0,0,0,0,0,0,0,0,0,0,0,0,0,0,0,0,0,0,0,0,0,0,0,0,0,0,0,0,0,0,0,0,0,0,0,0,0,0,0,0,0,0,0,0,0,0,0,0,0,0,0,0,0,0,-1.2371,-1.2372,0,-1.2516,-1.2517,-1.2519,-1.2579,-1.2578,-1.2578,-1.2578,-1.2728,-1.2732,-1.2736,0,0,0,0,0,0,0,0,0,0,0,0,0,-1.2148,-1.2151,-1.237,-1.2372,-1.2374,-1.2515,-1.2517,-1.2519,-1.2579,-1.2578,-1.2578,-1.2577,-1.2727,-1.2732,-1.2737,0,0,0,0,0,0,0,0,0,0,0,0,0,-1.2264,-1.2153,-1.237,-1.2421,-1.2427,-1.2515,-1.2518,-1.252,-1.2579,-1.2578,-1.2578,-1.2577,-1.2725,-1.2731,-1.2737,-1.2787,0,0,-1.2757,-1.276,0,0,0,0,0,0,0,0,-1.2257,-1.2272,-1.2411,-1.2417,-1.2424,-1.2529,-1.2494,-1.261,-1.2579,-1.2521,-1.2578,-1.2577,-1.2662,-1.2674,-1.2702,-1.2794,-1.28,-1.2758,-1.2762,-1.2764,-1.2766,0,0,0,0,0,0,0,-1.2249,-1.2266,-1.2428,-1.2413,-1.2421,-1.2437,-1.2453,-1.2516,-1.2593,-1.2526,-1.2531,-1.2547,-1.2666,-1.2696,-1.2706,-1.2803,-1.2758,-1.2763,-1.2767,-1.277,-1.2944,-1.2945,0,0,0,0,0,0,-1.2232,-1.2259,-1.2423,-1.2432,-1.2338,-1.2441,-1.2459,-1.2496,-1.2592,-1.2606,-1.2547,-1.2549,-1.2685,-1.2698,-1.2711,-1.2777,-1.2764,-1.277,-1.2774,-1.2943,-1.2944,-1.2945,0,0,0,0,0,0,-1.2227,-1.2246,-1.2418,-1.2347,-1.237,-1.2446,-1.2486,-1.2499,-1.2529,-1.2608,-1.2622,-1.2564,-1.2685,-1.2702,-1.2768,-1.2782,-1.2773,-1.2779,-1.2943,-1.2944,-1.2945,-1.2906,0,0,0,0,0,0,-1.2221,-1.2244,-1.2263,-1.2347,-1.2373,-1.2471,-1.2487,-1.2502,-1.254,-1.2544,-1.2627,-1.2641,-1.2686,-1.2758,-1.2774,-1.2791,-1.2784,-1.2942,-1.2943,-1.2944,-1.2906,-1.2906,-1.2905,0,0,0,0,0,-1.2212,-1.2246,-1.2263,-1.2283,-1.2398,-1.2471,-1.2487,-1.2537,-1.254,-1.2561,-1.2612,-1.2638,-1.2778,-1.2764,-1.2783,-1.2802,-1.2941,-1.2943,-1.2944,-1.2907,-1.2906,-1.2905,0,0,0,0,0,0,-1.2162,-1.2258,-1.2278,-1.234,-1.2397,-1.2481,-1.2508,-1.2535,-1.2592,-1.2594,-1.2655,-1.2674,-1.2734,-1.2775,-1.2757,-1.2856,-1.2862,-1.2867,-1.2827,-1.2827,-1.2826,-1.2815,-1.279,0,0,0,0,0,-1.2159,-1.2209,-1.229,-1.2337,-1.2365,-1.2431,-1.2465,-1.2499,-1.2561,-1.2585,-1.2641,-1.27,-1.2758,-1.2795,-1.2852,-1.2913,-1.2933,-1.2936,-1.2935,-1.2934,-1.2938,-1.2974,-1.2977,-1.2951,-1.2951,-1.2951,0,0,-1.2151,-1.221,-1.2238,-1.2329,-1.2377,-1.2428,-1.2451,-1.2505,-1.2544,-1.2594,-1.2659,-1.2702,-1.2773,-1.2836,-1.2867,-1.2872,-1.295,-1.2936,-1.2935,-1.294,-1.2976,-1.2978,-1.2981,-1.2952,-1.2952,-1.2952,0,0,-1.2164,-1.2213,-1.2258,-1.2306,-1.2378,-1.2423,-1.2433,-1.2514,-1.2544,-1.2611,-1.2649,-1.2698,-1.2795,-1.2844,-1.2882,-1.2915,-1.2941,-1.2932,-1.2928,-1.2963,-1.2965,-1.2967,-1.2979,-1.2983,-1.2936,-1.2936,-1.2935,0,-1.2146,-1.2224,-1.2278,-1.2329,-1.2369,-1.2416,-1.2463,-1.2507,-1.2594,-1.2621,-1.2625,-1.275,-1.2801,-1.2876,-1.2885,-1.2913,-1.2928,-1.2922,-1.296,-1.2963,-1.2966,-1.2978,-1.2982,-1.2934,-1.2934,-1.2934,-1.2934,0,-1.2199,-1.2253,-1.2281,-1.2363,-1.2406,-1.2455,-1.2517,-1.2554,-1.2585,-1.2629,-1.2696,-1.2759,-1.283,-1.2851,-1.2882,-1.2932,-1.2933,-1.2948,-1.2955,-1.2965,-1.2978,-1.2983,-1.2931,-1.2932,-1.2933,-1.2933,0,0,-1.2183,-1.2296,-1.2305,-1.2344,-1.2428,-1.2471,-1.2523,-1.2592,-1.2623,-1.2682,-1.2727,-1.281,-1.2824,-1.2867,-1.2904,-1.2934,-1.2957,-1.2946,-1.2949,-1.2946,-1.3017,-1.3005,-1.3009,-1.2976,-1.2977,-1.2978,-1.3011,0,-1.2208,-1.2301,-1.2351,-1.2424,-1.2475,-1.2521,-1.2566,-1.2623,-1.2666,-1.2717,-1.2765,-1.2822,-1.2837,-1.2863,-1.2895,-1.2947,-1.2972,-1.2946,-1.3019,-1.3021,-1.2999,-1.3016,-1.3003,-1.3031,-1.3016,-1.3017,-1.3018,0,-1.2248,-1.2306,-1.2383,-1.2462,-1.2486,-1.2525,-1.2593,-1.2641,-1.2707,-1.2736,-1.2784,-1.2821,-1.2879,-1.2882,-1.2962,-1.2943,-1.2977,-1.3007,-1.3009,-1.3018,-1.3019,-1.3025,-1.3042,-1.3045,-1.3026,-1.3025,-1.3025,0,-1.2229,-1.2327,-1.2386,-1.2418,-1.2511,-1.2538,-1.2578,-1.2644,-1.2683,-1.2743,-1.2769,-1.2835,-1.2871,-1.2922,-1.2976,-1.2974,-1.3052,-1.3059,-1.3078,-1.3077,-1.3092,-1.309,-1.3114,-1.3114,-1.3113,-1.3113,-1.3113,0,-1.2251,-1.2296,-1.2379,-1.2415,-1.2468,-1.2526,-1.2577,-1.2622,-1.268,-1.2726,-1.2771,-1.2814,-1.2883,-1.2935,-1.2978,-1.3039,-1.3055,-1.3081,-1.3091,-1.3076,-1.3073,-1.3099,-1.3098,-1.3115,-1.3114,-1.3114,-1.3114,0,-1.2238,-1.2295,-1.2363,-1.2446,-1.2468,-1.2503,-1.2575,-1.2613,-1.2659,-1.2717,-1.2734,-1.2806,-1.287,-1.2929,-1.3014,-1.3043,-1.3104,-1.3118,-1.3081,-1.3087,-1.3102,-1.31,-1.3143,-1.3152,-1.3145,-1.3145,-1.3145,0,-1.2248,-1.2284,-1.2371,-1.2405,-1.2445,-1.2499,-1.2539,-1.2598,-1.2638,-1.2717,-1.2745,-1.2812,-1.2868,-1.2968,-1.3028,-1.3094,-1.311,-1.312,-1.312,-1.3104,-1.311,-1.3107,-1.3111,-1.3119,-1.3119,-1.3119,-1.3119,0,-1.226,-1.2287,-1.2342,-1.2407,-1.2453,-1.2508,-1.2564,-1.2589,-1.266,-1.2702,-1.2767,-1.2811,-1.2898,-1.2964,-1.3037,-1.308,-1.3111,-1.3118,-1.3126,-1.3111,-1.3088,-1.3101,-1.3078,-1.3117,-1.3117,-1.3117,-1.3117,-1.3117,-1.226,-1.2294,-1.2361,-1.2421,-1.2469,-1.2521,-1.256,-1.2611,-1.2666,-1.2741,-1.2773,-1.2839,-1.2906,-1.3006,-1.3049,-1.3102,-1.3109,-1.312,-1.3123,-1.3125,-1.3122,-1.308,-1.3116,-1.3116,-1.3116,-1.3116,-1.3116,0,-1.2274,-1.2319,-1.2374,-1.2451,-1.2498,-1.2523,-1.2587,-1.2625,-1.2683,-1.2742,-1.2797,-1.2872,-1.2937,-1.3002,-1.3071,-1.3101,-1.3117,-1.3117,-1.3115,-1.3125,-1.3112,-1.3098,-1.3103,-1.3103,-1.3103,-1.3103,-1.3103,-1.3103,-1.2287,-1.2346,-1.2381,-1.2466,-1.2511,-1.2576,-1.261,-1.2658,-1.2706,-1.2788,-1.2841,-1.2883,-1.2946,-1.3019,-1.308,-1.3098,-1.3121,-1.3117,-1.3138,-1.3125,-1.3126,-1.3126,-1.3114,-1.3121,-1.3121,-1.3147,-1.3147,-1.3147]},{"header":{"parameterUnit":"m.s-1","parameterCategory":1,"la1":30.2991,"la2":30.254,"lo1":-89.0895,"lo2":-89.0444,"dy":0.0017,"dx":0.0017,"nx":28,"ny":28,"refTime":"2025-02-10T03:00:00:Z","depth":0,"parameterNumber":3,"parameterNumberName":"V-component_of_WINDS"},"data":[0,0,0,0,0,0,0,0,0,0,0,0,0,0,0,0,0,0,0,0,0,0,0,0,0,0,0,0,0,0,0,0,0,0,0,0,0,0,0,0,0,0,0,0,0,0,0,0,0,0,0,0,0,0,0,0,0,0,4.7353,4.7354,0,4.7471,4.7472,4.7474,4.7486,4.7484,4.7483,4.7482,4.76,4.7604,4.7608,0,0,0,0,0,0,0,0,0,0,0,0,0,4.7135,4.7139,4.7352,4.7354,4.7356,4.7471,4.7472,4.7474,4.7486,4.7484,4.7483,4.7482,4.7598,4.7603,4.7609,0,0,0,0,0,0,0,0,0,0,0,0,0,4.7239,4.7141,4.7352,4.7375,4.7379,4.747,4.7472,4.7474,4.7486,4.7484,4.7483,4.7481,4.7597,4.7603,4.7609,4.7685,0,0,4.7629,4.7632,0,0,0,0,0,0,0,0,4.7233,4.7247,4.7371,4.7374,4.7378,4.7462,4.7439,4.7545,4.7487,4.7445,4.7482,4.748,4.7555,4.7565,4.7591,4.769,4.7695,4.7629,4.7633,4.7636,4.7638,0,0,0,0,0,0,0,4.7226,4.7242,4.7399,4.7372,4.7377,4.7379,4.7392,4.7459,4.7509,4.7449,4.745,4.7464,4.7557,4.7585,4.7594,4.7697,4.7629,4.7635,4.7639,4.7641,4.7867,4.7869,0,0,0,0,0,0,4.7215,4.7236,4.7395,4.7403,4.73,4.7385,4.7399,4.7437,4.7508,4.7517,4.7465,4.7464,4.7575,4.7586,4.7598,4.7693,4.7636,4.7642,4.7646,4.7865,4.7867,4.787,0,0,0,0,0,0,4.721,4.7229,4.7391,4.732,4.7341,4.739,4.7432,4.744,4.7468,4.7521,4.7529,4.7485,4.7574,4.7589,4.7664,4.7697,4.7645,4.7651,4.7862,4.7866,4.7869,4.7883,0,0,0,0,0,0,4.7204,4.7227,4.7257,4.732,4.7344,4.7455,4.7435,4.7443,4.7479,4.7479,4.7541,4.755,4.7573,4.7654,4.767,4.7705,4.7656,4.7859,4.7864,4.7868,4.788,4.7886,4.7892,0,0,0,0,0,4.7196,4.7255,4.7258,4.7277,4.7383,4.7457,4.7471,4.7498,4.7482,4.7512,4.7546,4.7548,4.7691,4.7662,4.768,4.7717,4.7857,4.7863,4.7867,4.7877,4.7885,4.7892,0,0,0,0,0,0,4.7192,4.7263,4.7268,4.7349,4.7397,4.7459,4.7498,4.7505,4.7557,4.7555,4.7584,4.7599,4.7673,4.7702,4.7669,4.7795,4.7772,4.7781,4.7774,4.7782,4.7788,4.778,4.7661,0,0,0,0,0,4.7201,4.7256,4.7315,4.7381,4.7405,4.7448,4.7481,4.7498,4.7548,4.7568,4.7608,4.7656,4.7712,4.7748,4.7802,4.7884,4.7898,4.7918,4.7924,4.7929,4.7936,4.7984,4.7994,4.7886,4.7886,4.7886,0,0,4.7219,4.7265,4.7298,4.7382,4.7421,4.7478,4.7464,4.7524,4.7567,4.7577,4.7651,4.7682,4.7738,4.7817,4.7854,4.7844,4.797,4.7935,4.7939,4.7944,4.799,4.8,4.8009,4.7889,4.7888,4.7888,0,0,4.7282,4.7322,4.7382,4.7422,4.7483,4.7511,4.7525,4.7587,4.7608,4.7683,4.7693,4.7743,4.7838,4.7879,4.7911,4.7992,4.7996,4.8008,4.804,4.8086,4.8095,4.8103,4.8133,4.8144,4.8015,4.8015,4.8015,0,4.7297,4.7384,4.7412,4.7473,4.751,4.7523,4.7585,4.7622,4.7697,4.7722,4.771,4.7832,4.787,4.796,4.7979,4.8005,4.8023,4.8002,4.8091,4.8099,4.8107,4.8137,4.8148,4.8017,4.8016,4.8016,4.8016,0,4.74,4.746,4.7502,4.7576,4.7617,4.7678,4.7715,4.7754,4.7767,4.7796,4.7874,4.792,4.7985,4.8008,4.802,4.81,4.8092,4.8085,4.8063,4.8118,4.8147,4.8158,4.8018,4.8018,4.8018,4.8017,0,0,4.7463,4.7554,4.7569,4.7603,4.7672,4.7718,4.778,4.7845,4.7879,4.7929,4.7983,4.8064,4.8059,4.8096,4.8113,4.8153,4.8217,4.8142,4.8144,4.8156,4.831,4.8316,4.8329,4.8219,4.8222,4.8223,4.8306,0,4.7536,4.7648,4.7676,4.7771,4.7828,4.7842,4.7896,4.7944,4.7973,4.8025,4.8056,4.8115,4.8102,4.8125,4.8165,4.82,4.8248,4.8195,4.827,4.8272,4.8258,4.8343,4.8349,4.8425,4.8317,4.8319,4.832,0,4.7635,4.769,4.7792,4.7855,4.788,4.7928,4.7992,4.8041,4.8095,4.8114,4.8157,4.8171,4.8236,4.821,4.83,4.8263,4.8296,4.8318,4.8321,4.833,4.8301,4.8356,4.8449,4.8462,4.8337,4.8336,4.8335,0,4.7673,4.7773,4.7848,4.7877,4.7951,4.7985,4.8018,4.8071,4.8109,4.8164,4.8189,4.825,4.8284,4.833,4.836,4.8338,4.8449,4.8425,4.8467,4.8467,4.8491,4.849,4.8593,4.8509,4.8509,4.8508,4.8508,0,4.7752,4.7814,4.7867,4.7913,4.7983,4.8014,4.8083,4.8116,4.8163,4.8216,4.823,4.8279,4.8315,4.8369,4.8393,4.8466,4.848,4.8497,4.8503,4.8497,4.8495,4.852,4.8516,4.8511,4.8511,4.851,4.851,0,4.7808,4.7845,4.7928,4.7993,4.801,4.806,4.8115,4.816,4.819,4.8257,4.8274,4.8321,4.8385,4.842,4.8499,4.8516,4.8598,4.86,4.858,4.8583,4.8624,4.8621,4.8748,4.8767,4.8669,4.867,4.867,0,4.7856,4.7905,4.7976,4.8013,4.8047,4.8106,4.8146,4.8179,4.8219,4.8286,4.8324,4.8389,4.8444,4.8546,4.8587,4.8649,4.8653,4.8694,4.8663,4.8656,4.8657,4.8654,4.866,4.87,4.87,4.8701,4.8702,0,4.7939,4.7956,4.8014,4.8078,4.8126,4.8178,4.8229,4.8258,4.83,4.8345,4.8412,4.8454,4.8537,4.8603,4.8668,4.8701,4.8709,4.8711,4.8725,4.872,4.8708,4.8717,4.8597,4.8708,4.8708,4.8707,4.8707,4.8707,4.7995,4.804,4.8097,4.8161,4.8204,4.8252,4.8299,4.8335,4.8392,4.8464,4.8479,4.8551,4.8605,4.8694,4.8729,4.8785,4.8777,4.8796,4.8801,4.8806,4.8809,4.8697,4.8797,4.8797,4.8797,4.8796,4.8796,0,4.808,4.8119,4.8177,4.825,4.8301,4.8305,4.8362,4.8404,4.8467,4.8518,4.8572,4.865,4.8714,4.8761,4.8826,4.8862,4.8868,4.8879,4.8877,4.8885,4.8811,4.8794,4.8873,4.8873,4.8873,4.8873,4.8873,4.8873,4.8131,4.8208,4.8232,4.8331,4.8368,4.844,4.8472,4.8517,4.8559,4.8646,4.87,4.873,4.878,4.8849,4.8908,4.892,4.8944,4.8955,4.8968,4.8898,4.889,4.8882,4.8867,4.896,4.896,4.9038,4.9038,4.9039]}]]